Volver al catálogo

SL-14 DEB

ActivoPO
NORAD 45271·DEBRIS·🇷🇺 Russia

Lanzado Aug 15, 1991 desde Plesetsk Cosmodrome

Loading…

Próximos Pases (próximas 24 horas)

TLE

ActualizadoSource: Space-Track

Época: Sep 13, 2026, 23:38 UTC

1 45271U 91056H   26256.98508216 -.00000016  00000-0 -84610-4 0  9992
2 45271  82.3845  95.4964 0050696 127.0317 233.5453 13.06728279313439

Sigue SL-14 DEB en tiempo real con AllMySat

Download on the App Store